Weather History for KAUG - January, 2014

Change the Weather History Date:

Tuesday, January 28, 2014

  Actual Average Record
Temperature  
Mean Temperature 12 °F 19 °F  
Max Temperature 16 °F 28 °F 48 °F (2006)
Min Temperature 7 °F 11 °F -8 °F (2003)
Degree Days  
Heating Degree Days 54 46  
Month to date heating degree days 1279  
Since 1 July heating degree days 4034  
Cooling Degree Days 0 0  
Month to date cooling degree days 0  
Year to date cooling degree days 0  
Moisture  
Dew Point -10 °F    
Average Humidity 39    
Maximum Humidity 53    
Minimum Humidity 28    
Precipitation  
Precipitation 0.00 in 0.08 in 0.82 in (1997)
Month to date precipitation 2.36  
Year to date precipitation 2.36  
Sea Level Pressure  
Sea Level Pressure 30.15 in    
Wind  
Wind Speed 8 mph (WSW)    
Max Wind Speed 17 mph    
Max Gust Speed 24 mph    
Visibility 10 miles    
Events      
T = Trace of Precipitation, MM = Missing Value Source: NWS Daily Summary

Daily Weather History Graph

Daily Weather History Graph

Search for Another Location

Airport or City:

Trip Planner

Search our weather history database for the weather conditions in past years. The results will help you decide how hot, cold, wet, or windy it might be!

Date:

Astronomy

Jan. 28, 2014 Rise Set
Actual Time 7:01 AM EST 4:43 PM EST
Civil Twilight 6:30 AM EST 5:14 PM EST
Nautical Twilight 5:55 AM EST 5:49 PM EST
Astronomical Twilight 5:21 AM EST 6:23 PM EST
Moon 4:41 AM EST 2:28 PM EST
Length of Visible Light 10h 44m
Length of Day
9h 41m
Waning Crescent, 7% of the Moon is Illuminated
Jan 28
Waning Crescent
Jan 30
New
Feb 6
First Quarter
Feb 14
Full
Feb 22
Last Quarter

Hourly Weather History & Observations

Time (EST) Temp. Windchill Dew Point Humidity Pressure Visibility Wind Dir Wind Speed Gust Speed Precip Events Conditions
12:53 AM 12.0 °F 1.5 °F -6.0 °F 44% 29.95 in 10.0 mi WNW 6.9 mph - N/A   Clear
1:53 AM 10.0 °F -0.9 °F -7.1 °F 46% 29.97 in 10.0 mi WNW 6.9 mph - N/A   Clear
2:53 AM 10.0 °F -4.5 °F -11.0 °F 38% 29.99 in 10.0 mi NW 11.5 mph 21.9 mph N/A   Clear
3:53 AM 9.0 °F -3.2 °F -11.9 °F 38% 30.01 in 10.0 mi NW 8.1 mph - N/A   Clear
4:53 AM 8.1 °F -6.2 °F -15.0 °F 34% 30.04 in 10.0 mi WNW 10.4 mph - N/A   Clear
5:53 AM 7.0 °F -3.3 °F -16.1 °F 34% 30.07 in 10.0 mi WNW 5.8 mph - N/A   Clear
6:53 AM 8.1 °F -0.5 °F -15.0 °F 34% 30.10 in 10.0 mi West 4.6 mph - N/A   Clear
7:53 AM 7.0 °F -1.7 °F -14.1 °F 38% 30.13 in 10.0 mi West 4.6 mph - N/A   Clear
8:53 AM 9.0 °F -5.1 °F -9.9 °F 42% 30.15 in 10.0 mi WSW 10.4 mph - N/A   Clear
9:53 AM 10.9 °F -3.4 °F -9.9 °F 39% 30.18 in 10.0 mi SW 11.5 mph - N/A   Clear
10:53 AM 12.9 °F -3.9 °F -11.9 °F 32% 30.18 in 10.0 mi West 17.3 mph 21.9 mph N/A   Clear
11:53 AM 12.9 °F -2.8 °F -11.0 °F 34% 30.18 in 10.0 mi West 15.0 mph 21.9 mph N/A   Clear
12:53 PM 15.1 °F 4.2 °F -9.9 °F 32% 30.17 in 10.0 mi West 8.1 mph 18.4 mph N/A   Clear
1:53 PM 16.0 °F 1.7 °F -9.0 °F 32% 30.17 in 10.0 mi West 13.8 mph 24.2 mph N/A   Clear
2:53 PM 16.0 °F 5.3 °F -9.9 °F 31% 30.18 in 10.0 mi WSW 8.1 mph 17.3 mph N/A   Clear
3:53 PM 16.0 °F 8.8 °F -11.9 °F 28% 30.19 in 10.0 mi West 4.6 mph - N/A   Clear
4:53 PM 14.0 °F - -11.0 °F 32% 30.21 in 10.0 mi Calm Calm - N/A   Clear
5:53 PM 12.9 °F 6.9 °F -9.0 °F 37% 30.24 in 10.0 mi South 3.5 mph - N/A   Clear
6:53 PM 12.0 °F 4.1 °F -8.0 °F 41% 30.25 in 10.0 mi South 4.6 mph - N/A   Clear
7:53 PM 10.9 °F 1.4 °F -7.1 °F 44% 30.25 in 10.0 mi SSW 5.8 mph - N/A   Clear
8:53 PM 10.0 °F 1.8 °F -6.0 °F 48% 30.24 in 10.0 mi SSW 4.6 mph - N/A   Clear
9:53 PM 8.1 °F -0.5 °F -6.0 °F 53% 30.23 in 10.0 mi South 4.6 mph - N/A   Clear
10:53 PM 9.0 °F 0.6 °F -6.0 °F 51% 30.21 in 10.0 mi South 4.6 mph - N/A   Clear
11:53 PM 9.0 °F - -6.0 °F 51% 30.20 in 10.0 mi Calm Calm - N/A   Clear